(3552) Don Quixote (2000)

Japanese version
Home page
Total 6,336 html files since Dec. 4, 1995
Updated on February 20, 2004

---------------------------------------------------------------------

* Profile

* Orbital Elements

Epoch 2002 Nov. 22.0 TT = JDT 2452600.5                 Sumzina
M  78.48767              (2000.0)            P               Q
n   0.11314472     Peri.  316.88992     +0.62295707     +0.77765657
a   4.2336327      Node   350.48317     -0.50254097     +0.31486885
e   0.7131581      Incl.   30.81779     -0.59948066     +0.54415794
P   8.71           H   13.0           G   0.15           U   1
From 69 observations at 6 oppositions, 1983-1998, mean residual 1".09.

* Magnitudes Graph

        H = 13.0  G = 0.15

---------------------------------------------------------------------

The orbital elements are published at the MPC Ephemerides and Orbital Elements.
The magnitudes graphs are made with Comet for Windows.

---------------------------------------------------------------------

Copyright(C) 1995-2008 Seiichi Yoshida (comet@aerith.net). All rights reserved.